Regional Weather Roundup
Issued by NWS

Home | Current Version | Previous Version | Graphics & Text | Print | Product List | Glossary On
Versions: 1 2 3 4 5 6 7 8 9 10 11 12 13 14 15 16 17 18 19 20 21 22 23 24 25 26 27 28 29 30 31 32 33 34 35 36 37 38 39 40 41 42 43 44 45 46 47 48 49 50
000
ASUS43 KIND 240359
RWRIN

WEATHER ROUNDUP FOR INDIANA
NATIONAL WEATHER SERVICE INDIANAPOLIS IN
1100 PM EST SUN NOV 23 2014

NOTE: "FAIR" INDICATES FEW OR NO CLOUDS BELOW 12,000 FEET WITH NO
SIGNIFICANT WEATHER AND/OR OBSTRUCTIONS TO VISIBILITY.

* - STATION DOES NOT REPORT WEATHER SUCH AS PRECIPITATION OR FOG.

+ - STATION NOT QUALITY CONTROLLED BY THE NATIONAL WEATHER SERVICE.
    USE DATA WITH CAUTION...ESPECIALLY DEWPOINT AND RELATIVE
    HUMIDITY OBSERVATIONS.

INZ001>003-010>013-019-020-240500-
NORTHWEST INDIANA

CITY           SKY/WX    TMP DP  RH WIND       PRES   REMARKS
GARY /AIRPORT/ LGT RAIN  52  50  93 SE9       29.16F
VALPARAISO     NOT AVBL

$$

LMZ046-743>745-240500-
SOUTHERN LAKE MICHIGAN

STATION/POSITION TIME  TEMP WIND        PRES
                       AIR  DIR/SP/G
                 (UTC) (F)  (DEG/KT/KT) (MB)
MICHIGAN CITY    0300   51  110/ 12/ 17   N/A

$$

INZ004-005-014>016-021>024-240500-
NORTH CENTRAL INDIANA

CITY           SKY/WX    TMP DP  RH WIND       PRES   REMARKS
GOSHEN         LGT RAIN  57  49  74 SE7       29.17F
SOUTH BEND     RAIN      50  49  96 E7        29.18F FOG

$$

INZ006>009-017-018-025>027-240500-
NORTHEAST INDIANA

CITY           SKY/WX    TMP DP  RH WIND       PRES   REMARKS
ANGOLA *+      CLOUDY    50  39  66 SE10      29.22F
FORT WAYNE     LGT RAIN  53  52  96 SE20      29.20F FOG

$$

INZ028-029-035-036-043>045-051>053-240500-
WEST CENTRAL INDIANA

CITY           SKY/WX    TMP DP  RH WIND       PRES   REMARKS
GREENCASTLE +  CLOUDY    52  52 100 S8        29.18F FOG
LAFAYETTE      RAIN      51  51 100 CALM      29.16F FOG
TERRE HAUTE    LGT RAIN  53  52  96 SW8       29.19F

$$

INZ030>032-037>040-046>048-054>057-064-065-240500-
CENTRAL INDIANA

CITY           SKY/WX    TMP DP  RH WIND       PRES   REMARKS
INDIANAPOLIS   LGT RAIN  53  53 100 S18G28    29.16F
-EAGLE CREEK   LGT RAIN  54  54 100 S13G24    29.16F
KOKOMO *+      CLOUDY    54  52  94 S12       29.16F
MT COMFORT *+  CLOUDY    55 N/A N/A S21       29.19F
SHELBYVILLE    LGT RAIN  58  54  86 S18G26    29.20F

$$

INZ033-034-041-042-049-050-058-059-240500-
EAST CENTRAL INDIANA

CITY           SKY/WX    TMP DP  RH WIND       PRES   REMARKS
MUNCIE         LGT RAIN  56  54  93 S17G26    29.19F FOG

$$

INZ060-061-067>069-081>083-085>088-240500-
SOUTHWEST INDIANA

CITY           SKY/WX    TMP DP  RH WIND       PRES   REMARKS
EVANSVILLE     CLOUDY    59  55  87 SW21      29.31R
HUNTINGBURG *+ CLOUDY    57  54  88 SW21G28   29.29R

$$

INZ062-063-066-070>080-084-089>092-240500-
SOUTH CENTRAL AND SOUTHEAST INDIANA

CITY           SKY/WX    TMP DP  RH WIND       PRES   REMARKS
BLOOMINGTON    RAIN      57  55  93 S14G22    29.20F FOG
SEYMOUR +      LGT RAIN  57  57 100 S14       29.23

$$



USA.gov is the U.S. government's official web portal to all federal, state and local government web resources and services.